Other Public Products
Issued by NWS Grand Forks, ND

Home | Current Version | Previous Version | Text Only | Print | Product List | Glossary Off
Versions: 1 2 3 4 5 6 7 8 9 10 11 12 13 14 15 16 17 18 19 20 21 22 23 24 25 26 27 28 29 30 31 32 33 34 35 36 37 38 39 40 41 42 43 44 45 46 47 48 49 50

000
FPUS83 KFGF 181510
OPUFGF
PRAIRIE TO PINES WEATHER ROUNDUP
NATIONAL WEATHER SERVICE EASTERN NORTH DAKOTA/GRAND FORKS ND
900 AM CST THU DEC 18 2014

 **SATELLITE DATA USED TO AUGMENT SKY COVER AT AUTOMATED STATIONS**
 *****  WEATHER ACROSS EASTERN NORTH DAKOTA  *****

CITY           SKY/WX    TMP DP  RH WIND       PRES   REMARKS
GRAND FORKS    CLOUDY     9   6  88 SE7       30.24S WCI  -2
GRAND FORKS AF PTCLDY     9   8  98 SE5       30.23S WCI   0
GRAND CITY NWS NOT AVBL
BUXTON         NOT AVBL
DEVILS LAKE    CLOUDY    14   7  73 SE9       30.12S WCI   2
FARGO          MOCLDY    13   8  81 S10       30.25S WCI   0
WAHPETON ARPT  FAIR      10   7  85 SE5       30.26S WCI   2
$$

 *****  WEATHER ACROSS CENTRAL AND WESTERN NORTH DAKOTA  *****

CITY           SKY/WX    TMP DP  RH WIND       PRES   REMARKS
JAMESTOWN      CLOUDY    16  12  84 SE9       30.14S WCI   4
BISMARCK       CLOUDY    18  16  92 SE8       30.09S WCI   8
MINOT          CLOUDY    18  14  84 SE5       30.05S WCI  11
MINOT AFB      CLOUDY    14  14 100 SE6       30.05S WCI   5
GARRISON         N/A     19  16  88 S8        30.04S WCI   9
WILLISTON      CLOUDY    21  17  84 S5        30.00S WCI  15
DICKINSON      CLOUDY    22  19  89 S8        29.95S WCI  12
HETTINGER      CLOUDY    23  20  88 S6        29.98S WCI  16
$$

 *****  OTHER OBSERVATIONS NORTHEAST NORTH DAKOTA  *****

CITY           SKY/WX    TMP DP  RH WIND       PRES   REMARKS
WALHALLA         N/A      1   1 100 CALM      30.21F
LANGDON        PTSUNNY    7   1  78 SE7       30.13S WCI  -5
CAVALIER       FAIR       9   7  92 S3        30.22F FOG
GRAFTON        NOT AVBL
CANDO          CLOUDY    12  10  92 SE7       30.14S WCI   2
FORT TOTTEN      N/A     13  10  87 SE7       29.95  WCI   3
ROLLA          PTSUNNY    9   7  92 S8        30.10S WCI  -4
RUGBY          FAIR      10   9  92 SE7       30.10S WCI   0
 ***** THE ABOVE OBSERVATIONS ARE NON NWS ARE NOT QUALITY
        CONTROLLED AND MAY MIS-REPORT RAIN FOR SNOW...
$$

 *****  OTHER OBSERVATIONS SOUTHEAST NORTH DAKOTA *****

CITY           SKY/WX    TMP DP  RH WIND       PRES   REMARKS
COOPERSTOWN    NOT AVBL
VALLEY CITY    CLOUDY    14  14 100 SE7       30.17F WCI   4
OAKES            N/A     16  14  93 SE8       30.18S WCI   5
GWINNER        CLOUDY    18  18 100 MISG      30.21S
SHEYENNE NWR     N/A     13  10  87 S3        29.95S
BUFFALO        NOT AVBL
WYNDMERE         N/A     12  10  92 SE3         N/A
 ***** THE ABOVE OBSERVATIONS ARE NON NWS ARE NOT QUALITY
       CONTROLLED AND MAY MIS-REPORT RAIN FOR SNOW...
$$

  *****  WEATHER ACROSS NORTHERN MINNESOTA  *****

CITY           SKY/WX    TMP DP  RH WIND       PRES   REMARKS
FLAG ISLAND    MOCLDY     9   3  78 SE8       30.26S WCI  -4
WARROAD        MOCLDY     5   1  85 CALM      30.26S
ROSEAU         CLEAR      9   3  78 CALM      30.26R
HALLOCK        PTCLDY     5   1  85 SE5       30.25S WCI  -4
THF RVR FALLS  PTCLDY     7   3  85 SE5       30.24S WCI  -2
HALSTAD          N/A      9   5  83 SE3         N/A
FOSSTON        PTCLDY    10   7  85 CALM      30.24S
BAUDETTE       MOCLDY     4   0  83 SE5       30.27S WCI  -5
WASKISH        CLEAR      7   5  92 CALM      30.27S
CROOKSTON      PTCLDY     9   7  92 SE6       30.26S WCI  -1
$$
  *****  WEATHER ACROSS CENTRAL AND WEST MINNESOTA  *****

CITY           SKY/WX    TMP DP  RH WIND       PRES   REMARKS
BEMIDJI        PTCLDY     8   5  89 E3        30.25S
PARK RAPIDS    PTCLDY     7   4  87 SE3       30.23S
WADENA         CLEAR      5   3  92 NW3       30.24S
DETROIT LAKES  PTCLDY    10   9  92 S6        30.24S WCI   1
MOORHEAD       MOCLDY    12  12 100 S7        30.25S WCI   2
FERGUS FALLS   PTCLDY     9   5  85 SE8       30.29R WCI  -4
ELBOW LAKE     FAIR       8   6  89 SE7       30.25S WCI  -3
MORRIS MN      PTCLDY    10   7  85 SE6       30.26R FOG     WCI   1
STAPLES        CLEAR      5   3  92 CALM      30.26S
WHEATON        CLOUDY     9   7  92 SE5       30.27S WCI   0
$$
  *****  WEATHER ELSEWHERE ACROSS MINNESOTA  *****

CITY           SKY/WX    TMP DP  RH WIND       PRES   REMARKS
DULUTH         FLURRIES  20  15  81 NW3       30.26S
INTRNTL FALLS  PTCLDY     2  -1  88 E3        30.30R
ELY            CLOUDY    10   9  92 CALM      30.29S
CLOQUET        CLOUDY    18  16  93 CALM      30.27F
BRAINERD       CLOUDY    11   8  88 CALM      30.28R FOG
HIBBING        CLOUDY    17  12  80 CALM      30.28S
ALEXANDRIA     PTCLDY     9   6  88 SE7       30.25R WCI  -2
SAINT CLOUD    CLOUDY    15   9  76 CALM      30.29R
MINNEAPOLIS    FLURRIES  16  13  88 SW3       30.31R
$$

  *****  WEATHER ACROSS SOUTH DAKOTA  *****

CITY           SKY/WX    TMP DP  RH WIND       PRES   REMARKS
SIOUX FALLS    CLOUDY    20  17  88 SE7       30.22S WCI  11
BROOKINGS      NOT AVBL
WATERTOWN      CLOUDY    17  12  80 S10       30.17F WCI   5
HURON          CLOUDY    20  17  88 SE10      30.19S WCI   9
SISSETON         N/A     14  11  87 S9        30.22S WCI   2
ABERDEEN       CLOUDY    20  14  77 S8        30.19S WCI  10
MITCHELL       LGT SNOW  22  19  89 SE8       30.21S FOG     WCI  12
PIERRE         CLOUDY    22  20  92 SE6       30.10S WCI  14
MOBRIDGE       CLOUDY    21  18  88 SE14      30.06F WCI   8
RAPID CITY     FOG       20  19  96 SE5       30.00S VSB<1/4 WCI  13
$$

  *****  SOME WEATHER IN NEARBY STATES *****

CITY           SKY/WX    TMP DP  RH WIND       PRES   REMARKS
GLASGOW MT     CLOUDY    25  22  88 SE3       29.95R
GREAT FALLS MT PTCLDY    32  24  72 SW17      29.90S WCI  21
CHEYENNE WY    PTCLDY    29  15  56 W14       30.01R WCI  18
SCOTTSBLUFF NE CLOUDY     6   3  87 NW6       30.05S FOG     WCI  -4
OMAHA NE       LGT SNOW  27  23  85 SE8       30.26S FOG     WCI  19
DES MOINES IA  CLOUDY    23  17  78 SE3       30.29S
DAVENPORT IA   CLOUDY    19  15  84 CALM      30.31S
CHICAGO IL     PTSUNNY   22  15  75 W6        30.29S WCI  14
EAU CLAIRE WI  CLOUDY    23  18  81 CALM      30.29S
LA CROSSE WI   CLOUDY    23  16  74 CALM      30.31S
$$

  *****  SOME NATIONAL WEATHER *****

CITY           SKY/WX    TMP DP  RH WIND       PRES   REMARKS
LA GUARDIA NY  PTSUNNY   39  24  55 NW18G28   29.99R
RALEIGH NC     MOSUNNY   42  25  50 CALM      30.19S
ATLANTA GA     PTSUNNY   43  31  62 NW3       30.18R
NEW ORLEANS LA PTSUNNY   58  50  75 E8        30.18F
OKLAHOMA CITY  DRIZZLE   40  37  89 SE3       30.15R FOG
ALBUQUERQUE NM PTCLDY    30  26  85 E7        30.15S WCI  23
SALT LAKE CITY CLOUDY    33  30  88 S5        30.12R
LOS ANGELES CA MOCLDY    52  45  77 NE5       30.16R
BOISE ID       CLOUDY    39  30  70 SE10      30.08R
SEATTLE WA     CLOUDY    45  41  86 E5        29.93F
$$

*** WEATHER ACROSS MANITOBA...SASKATCHEWAN AND ONTARIO ***
                ***ONTARIO***

CITY           SKY/WX    TMP DP  RH WIND       PRES   REMARKS
GERALDTON      CLEAR     -4  -8  84 W3        30.32S
THUNDER BAY    NOT AVBL
SIOUX LOOKOUT  NOT AVBL
TORONTO        PTSUNNY   30  23  74 NW16      30.10R WCI  19
BIG TROUT LK   CLEAR      0  -2  92 W5        30.24S WCI -10
PICKLE LAKE    NOT AVBL
DRYDEN         CLEAR      3  -2  78 SE7       30.29S WCI  -9
KENORA         NOT AVBL
$$
                *** MANITOBA***

CITY           SKY/WX    TMP DP  RH WIND       PRES   REMARKS
BRANDON        NOT AVBL
DAUPHIN        CLEAR      0  -4  85 CALM      30.11S
ISLAND LAKE    CLEAR      0  -6  78 SE7       30.19F WCI -13
PILOT MOUND      N/A      5   1  85 SE8         N/A  WCI  -8
THE PAS        NOT AVBL
THOMPSON       NOT AVBL
WINNIPEG       NOT AVBL
LYNN LAKE      FLURRIES  10  10 100 SW9       29.92S WCI  -2
$$
                ***SASKATCHEWAN***

CITY           SKY/WX    TMP DP  RH WIND       PRES   REMARKS
ESTEVAN        CLOUDY    16  14  93 SE7       30.01S WCI   6
KINDERSLEY     NOT AVBL
LLOYDMINSTER   FOG       16  14  93 VRB2      29.84S VSB 3/4
PRINCE ALBERT  NOT AVBL
REGINA         NOT AVBL
YORKTON        FLURRIES  16  12  86 S13G20    30.01S WCI   2
N. BATTLEFORD  CLOUDY    21  19  93 SE5       29.89S WCI  15



USA.gov is the U.S. government's official web portal to all federal, state and local government web resources and services.